Location: Izdebno
(52.6670°N, 16.2170°E)
Time: 12:58:24
(UTC+02:00)

Vanguard 2 - Pass Details

Date: 03 February 2023
Orbit: 553 x 2927 km, 32.9° (Epoch: 26 March)

Event Time Altitude Azimuth Distance (km) Brightness Sun altitude
Rises 21:54:59 0° 224° (SW) 5,538 11.9 -45.2°
Reaches altitude 10° 21:58:51 10° 215° (SW) 4,846 11.5 -45.6°
Enters shadow 21:59:55 13° 212° (SSW) 4,681 11.4 -45.8°
Maximum altitude 22:10:54 32° 160° (SSE) 4,005 - -46.9°
Drops below altitude 10° 22:25:08 10° 107° (ESE) 5,750 - -48.4°
Sets 22:30:14 0° 99° (E) 6,687 - -48.9°
